This is the latest recevied weather packets stored in our database for station/object N8VDS-10. If no packets are shown the sender has not sent any weather packets the latest 10 day(s).
| Time | Temp. | Humidity | Pressure | Rain* | Wind** | Luminosity | Snow |
|---|---|---|---|---|---|---|---|
| 1777725011 | 3.33° C | 70% | 1021.9 hPa | 0 mm | - | 176 W/m² | - |
| 1777724405 | 2.78° C | 71% | 1021.9 hPa | 0 mm | - | 166 W/m² | - |
| 1777724102 | 2.78° C | 72% | 1022 hPa | 0 mm | - | 151 W/m² | - |
| 1777723800 | 2.78° C | 72% | 1021.9 hPa | 0 mm | - | 135 W/m² | - |
| 1777723496 | 2.78° C | 72% | 1021.8 hPa | 0 mm | - | 128 W/m² | - |
| 1777723193 | 2.22° C | 73% | 1021.9 hPa | 0 mm | - | 115 W/m² | - |
| 1777721980 | 2.22° C | 75% | 1021.7 hPa | 0 mm | - | 42 W/m² | - |
| 1777721678 | 2.22° C | 75% | 1021.8 hPa | 0 mm | - | 45 W/m² | - |
| 1777721377 | 1.67° C | 76% | 1021.8 hPa | 0 mm | - | 51 W/m² | - |
| 1777721073 | 1.67° C | 77% | 1021.7 hPa | 0 mm | - | 39 W/m² | - |
| 1777720771 | 1.67° C | 80% | 1021.8 hPa | 0 mm | - | 37 W/m² | - |
| 1777720468 | 1.11° C | 81% | 1021.8 hPa | 0 mm | - | 25 W/m² | - |
| 1777720165 | 0.56° C | 82% | 1021.7 hPa | 0 mm | - | 24 W/m² | - |
| 1777719863 | 0.56° C | 83% | 1021.4 hPa | 0 mm | - | 18 W/m² | - |
| 1777719560 | 0.56° C | 83% | 1021.8 hPa | 0 mm | - | 16 W/m² | - |
| 1777719258 | 0.56° C | 83% | 1021.4 hPa | 0 mm | - | 13 W/m² | - |
| 1777718956 | 0.56° C | 83% | 1021.5 hPa | 0 mm | - | 10 W/m² | - |
| 1777718652 | 0.56° C | 83% | 1021.4 hPa | 0 mm | - | 9 W/m² | - |
| 1777718349 | 0.56° C | 83% | 1021.3 hPa | 0 mm | - | 6 W/m² | - |
| 1777718047 | 0.56° C | 84% | 1021.4 hPa | 0 mm | - | 4 W/m² | - |
| 1777717744 | 0.56° C | 85% | 1021.1 hPa | 0 mm | - | 3 W/m² | - |
| 1777717440 | 1.11° C | 85% | 1021.3 hPa | 0 mm | - | 1 W/m² | - |
| 1777717138 | 1.11° C | 86% | 1021.2 hPa | 0 mm | - | 1 W/m² | - |
| 1777716836 | 1.11° C | 87% | 1021.2 hPa | 0 mm | - | 0 W/m² | - |
| 1777716534 | 1.11° C | 89% | 1021.1 hPa | 0 mm | - | 0 W/m² | - |
* Rain latest hour (hover to see other rain measurements)
** Current wind speed in m/s (hover to see current wind gust speed)